Stations météo

Publicité
Nimes/Garons, France (7646): Température de l'air & dewpoint: 11.12.2017 22:00:00 - 17.12.2017 22:00:00 (CET)Nimes/Garons, France (7646): Vitesse du vent & gusts: 11.12.2017 22:00:00 - 17.12.2017 22:00:00 (CET)Nimes/Garons, France (7646): Direction du vent: 11.12.2017 22:00:00 - 17.12.2017 22:00:00 (CET)Nimes/Garons, France (7646): reduced air pressure: 11.12.2017 22:00:00 - 17.12.2017 22:00:00 (CET)Nimes/Garons, France (7646): visibility: 11.12.2017 22:00:00 - 17.12.2017 22:00:00 (CET)Nimes/Garons, France (7646): Quantités de précipitations: 11.12.2017 22:00:00 - 17.12.2017 22:00:00 (CET)
Date & Time tt [°C] td [°C] ff [km/h] ff [knt] fx [km/h] fx [knt] dd ppp [hPa] vv [km] rr [mm]
17.12.2017 22:00:00 1,8 -1,1 16 9 22 12 NNW 1029,0 35 0,0
17.12.2017 21:00:00 2,7 -0,6 13 7 26 14 NNE 1029,0 10 0,0
17.12.2017 20:00:00 2,9 -0,6 12 6 22 12 N 1028,4 51 0,0
17.12.2017 19:00:00 3,4 -0,3 11 6 21 11 N 1027,9 10 0,0
17.12.2017 18:00:00 3,9 -0,7 9 5 24 13 NNE 1027,2 10 0,0
17.12.2017 17:00:00 5,5 -0,6 13 7 30 16 NNE 1026,4 10 0,0
17.12.2017 16:00:00 8,7 -0,9 16 9 34 18 N 1025,4 10 0,0
17.12.2017 15:00:00 9,2 -2,1 18 10 32 18 NNW 1024,7 10 0,0
17.12.2017 14:00:00 9,2 -1,3 16 9 27 14 NW 1024,9 10 0,0
17.12.2017 13:00:00 8,5 -1,3 16 9 25 13 NNW 1025,5 10 0,0
17.12.2017 12:00:00 7,9 -1,1 16 8 27 14 NNW 1026,6 41 0,0
17.12.2017 11:00:00 6,4 -2,0 15 8 23 13 N 1026,8 10 0,0
17.12.2017 10:00:00 6,3 -2,3 12 7 19 11 NNW 1026,2 60 0,0
17.12.2017 09:00:00 3,3 -3,3 10 5 24 13 NNW 1025,5 57 0,0
17.12.2017 08:00:00 1,5 -5,2 11 6 26 14 WNW 1025,1 10 0,0
17.12.2017 07:00:00 2,5 -4,7 16 9 31 17 N 1024,4 10 0,0
17.12.2017 06:00:00 2,1 -4,0 13 7 29 15 NNW 1023,8 10 0,0
17.12.2017 05:00:00 2,1 -3,8 11 6 22 12 NW 1023,3 10 0,0
17.12.2017 04:00:00 1,2 -4,1 5 3 17 9 NNW 1023,1 60 0,0
17.12.2017 03:00:00 2,0 -5,0 0 0 16 9 N 1023,1 60 0,0
17.12.2017 02:00:00 1,2 -4,3 8 4 15 8 NNW 1022,7 10 0,0
17.12.2017 01:00:00 2,0 -3,3 6 3 22 12 NNE 1022,3 60 0,0
17.12.2017 00:00:00 1,6 -2,5 9 5 13 7 NW 1022,1 60 0,0
16.12.2017 23:00:00 2,0 -2,3 8 5 22 12 NNW 1021,6 60 0,0
16.12.2017 22:00:00 2,6 -1,6 10 5 19 10 NNW 1020,9 60 0,0
16.12.2017 21:00:00 2,9 -1,3 8 5 16 9 N 1020,5 60 0,0
16.12.2017 20:00:00 4,3 -0,7 10 5 20 11 NNW 1019,6 60 0,0
16.12.2017 19:00:00 5,1 -0,9 14 8 30 16 N 1018,9 60 0,0
16.12.2017 18:00:00 5,9 -1,1 18 10 29 15 N 1017,9 60 0,0
16.12.2017 17:00:00 7,4 -1,8 16 8 34 18 N 1016,9 60 0,0
16.12.2017 16:00:00 9,2 -1,5 19 10 39 21 N 1016,0 60 0,0
16.12.2017 15:00:00 9,8 -1,9 17 9 50 27 N 1015,1 60 0,0
16.12.2017 14:00:00 10,1 -0,1 29 16 50 27 N 1014,3 45 0,0
16.12.2017 13:00:00 10,1 -0,4 24 13 38 20 N 1013,9 10 0,0
16.12.2017 12:00:00 9,2 0,1 15 8 24 13 NNE 1013,8 60 0,0
16.12.2017 11:00:00 8,7 -1,4 14 8 26 14 NNW 1014,2 60 0,0
16.12.2017 10:00:00 6,0 -1,4 10 5 17 9 W 1013,4 60 0,0
16.12.2017 09:00:00 4,7 -1,8 10 5 20 11 WNW 1012,2 56 0,0
16.12.2017 08:00:00 4,5 -2,6 13 7 31 17 WNW 1011,5 60 0,0
16.12.2017 07:00:00 4,2 -2,9 16 9 25 14 WNW 1010,3 10 0,0
16.12.2017 06:00:00 3,8 -3,5 9 5 22 12 WNW 1009,7 10 0,0
16.12.2017 05:00:00 5,3 -3,0 13 7 22 12 WNW 1009,1 10 0,0
16.12.2017 04:00:00 4,6 -2,5 9 5 19 10 W 1008,8 60 0,0
16.12.2017 03:00:00 5,2 -2,2 8 4 18 10 WNW 1008,3 60 0,0
16.12.2017 02:00:00 4,5 -1,3 10 5 20 11 NW 1007,7 60 0,0
16.12.2017 01:00:00 4,3 0,3 11 6 14 8 SW 1007,2 10 0,0
16.12.2017 00:00:00 5,1 -0,1 7 4 30 16 W 1006,9 60 0,0
15.12.2017 23:00:00 5,7 0,8 8 4 15 8 W 1006,3 10 0,0
15.12.2017 22:00:00 6,4 0,7 10 5 30 16 WNW 1005,6 60 0,0
15.12.2017 21:00:00 6,6 1,3 17 9 36 19 W 1004,4 60 0,0
15.12.2017 20:00:00 6,7 1,6 18 10 39 21 W 1004,3 10 0,0
15.12.2017 19:00:00 7,7 1,7 19 11 33 18 W 1004,5 60 0,0
15.12.2017 18:00:00 8,4 1,1 13 7 29 16 W 1004,5 36 0,0
15.12.2017 17:00:00 9,3 1,2 10 5 24 13 W 1004,4 42 0,0
15.12.2017 16:00:00 10,1 -0,1 13 7 33 18 NNW 1003,9 59 0,0
15.12.2017 15:00:00 12,1 0,2 17 9 29 16 NNW 1003,4 60 0,0
15.12.2017 14:00:00 11,1 1,1 11 6 27 15 NNW 1003,7 60 0,0
15.12.2017 13:00:00 9,8 0,4 19 11 37 20 NNW 1004,4 60 0,0
15.12.2017 12:00:00 10,8 1,6 18 10 48 26 NW 1004,8 60 0,0
15.12.2017 11:00:00 8,5 1,2 18 10 30 16 NW 1005,4 58 0,0
15.12.2017 10:00:00 7,8 1,8 16 9 26 14 NW 1005,8 60 0,0
15.12.2017 09:00:00 7,2 2,3 5 3 12 7 WSW 1004,4 60 0,0
15.12.2017 08:00:00 7,6 3,1 9 5 27 15 NW 1004,4 10 0,0
15.12.2017 07:00:00 8,3 4,3 16 9 26 14 NW 1004,9 60 0,0
15.12.2017 06:00:00 9,1 6,0 15 8 29 16 W 1004,1 52 0,0
15.12.2017 05:00:00 9,6 5,9 14 8 23 12 SW 1004,0 60 0,0
15.12.2017 04:00:00 9,0 6,1 11 6 28 15 SSW 1004,8 10 0,0
15.12.2017 03:00:00 10,0 5,4 16 9 31 17 SW 1005,4 10 0,0
15.12.2017 02:00:00 10,5 5,9 15 8 31 17 SW 1005,7 10 0,0
15.12.2017 01:00:00 10,2 6,5 15 8 30 16 SW 1006,5 10 0,0
15.12.2017 00:00:00 9,8 7,0 15 8 29 15 SW 1007,3 10 0,0
14.12.2017 23:00:00 8,7 5,4 8 4 23 13 SSW 1007,6 10 0,0
14.12.2017 22:00:00 11,3 6,0 12 7 24 13 SSW 1008,3 60 0,0
14.12.2017 21:00:00 11,0 5,9 10 6 29 16 SW 1008,8 60 0,0
14.12.2017 20:00:00 11,6 6,1 9 5 24 13 SSW 1009,3 60 0,0
14.12.2017 19:00:00 11,8 6,5 7 4 24 13 SW 1009,4 60 0,0
14.12.2017 18:00:00 12,3 5,2 14 7 24 13 WSW 1009,4 60 0,0
14.12.2017 17:00:00 13,1 5,5 12 6 34 18 W 1010,1 42 0,0
14.12.2017 16:00:00 13,6 4,5 21 11 41 22 WSW 1010,1 10 0,0
14.12.2017 15:00:00 14,9 4,6 23 12 44 24 W 1010,1 34 0,0
14.12.2017 14:00:00 14,7 7,5 15 8 27 15 WSW 1010,6 10 0,0
14.12.2017 13:00:00 13,9 6,7 11 6 26 14 WSW 1011,8 41 0,0
14.12.2017 12:00:00 12,4 8,3 4 2 12 6 SSW 1012,9 36 0,0
14.12.2017 11:00:00 9,9 7,3 4 2 13 7 - 1013,9 10 0,0
14.12.2017 10:00:00 9,3 6,9 6 3 13 7 W 1014,0 20 0,0
14.12.2017 09:00:00 7,9 6,7 4 2 10 5 - 1013,8 10 0,0
14.12.2017 08:00:00 7,5 6,4 4 2 7 4 - 1013,2 10 0,0
14.12.2017 07:00:00 7,2 6,1 4 2 11 6 S 1012,8 18 0,0
14.12.2017 06:00:00 8,0 6,5 5 3 11 6 NW 1012,8 10 0,0
14.12.2017 05:00:00 8,9 7,2 5 3 15 8 WNW 1013,1 10 0,0
14.12.2017 04:00:00 9,0 7,6 4 2 30 16 - 1013,2 10 0,0
14.12.2017 03:00:00 9,6 7,7 18 10 38 21 SW 1013,5 10 0,0
14.12.2017 02:00:00 9,8 7,0 18 10 33 18 SW 1013,5 60 0,0
14.12.2017 01:00:00 8,9 6,5 12 7 29 16 SSW 1014,4 60 0,0
14.12.2017 00:00:00 8,9 6,9 11 6 20 11 SSW 1015,1 10 0,0
13.12.2017 23:00:00 5,7 4,0 6 3 11 6 S 1016,1 10 0,4
13.12.2017 22:00:00 6,1 3,1 10 6 18 10 S 1016,3 20 0,0
13.12.2017 21:00:00 6,1 2,9 14 7 19 10 SE 1016,9 27 0,0
13.12.2017 20:00:00 6,3 4,1 12 7 16 9 ESE 1017,0 27 0,2
13.12.2017 19:00:00 7,1 3,3 7 4 13 7 ESE 1017,6 47 0,0
13.12.2017 18:00:00 7,1 3,0 5 3 14 8 SSW 1018,2 57 0,0
13.12.2017 17:00:00 7,3 1,6 9 5 13 7 S 1018,6 10 0,0
13.12.2017 16:00:00 8,5 0,5 8 4 18 10 SW 1018,8 10 0,0
13.12.2017 15:00:00 9,1 1,7 11 6 19 11 SSW 1018,8 10 0,0
13.12.2017 14:00:00 9,7 1,3 8 4 16 8 SSW 1019,3 52 0,0
13.12.2017 13:00:00 8,8 1,0 9 5 19 11 SW 1020,2 60 0,0
13.12.2017 12:00:00 8,3 0,5 6 3 13 7 S 1020,9 60 0,0
13.12.2017 11:00:00 7,6 -0,6 8 5 14 8 S 1021,7 60 0,0
13.12.2017 10:00:00 5,7 -1,5 6 3 16 8 WSW 1022,0 57 0,0
13.12.2017 09:00:00 1,3 -2,3 11 6 14 7 WSW 1022,1 43 0,0
13.12.2017 08:00:00 0,0 -3,7 6 3 10 5 NNW 1022,0 60 0,0
13.12.2017 07:00:00 -1,0 -3,7 0 0 9 5 N 1021,9 56 0,0
13.12.2017 06:00:00 -1,5 -3,5 5 3 10 6 NNW 1022,0 56 0,0
13.12.2017 05:00:00 -0,9 -3,8 5 3 14 8 NW 1021,5 10 0,0
13.12.2017 04:00:00 0,1 -3,3 8 4 15 8 NNW 1021,7 10 0,0
13.12.2017 03:00:00 0,3 -3,8 9 5 15 8 NNW 1022,0 60 0,0
13.12.2017 02:00:00 1,4 -2,4 8 4 18 10 WNW 1021,7 60 0,0
13.12.2017 01:00:00 1,4 -1,7 14 7 18 10 WNW 1021,3 42 0,0
13.12.2017 00:00:00 0,9 -1,7 10 5 18 10 WNW 1021,1 17 0,0
12.12.2017 23:00:00 1,7 -0,7 12 6 18 10 NW 1020,7 38 0,0
12.12.2017 22:00:00 1,4 -1,2 11 6 21 11 NNW 1020,0 47 0,0
12.12.2017 21:00:00 2,1 -0,2 10 5 17 9 NNW 1019,7 55 0,0
12.12.2017 20:00:00 2,8 1,0 9 5 15 8 NNW 1018,9 10 0,0
12.12.2017 19:00:00 3,1 0,8 8 4 18 10 NNW 1018,2 58 0,0
12.12.2017 18:00:00 3,2 0,6 8 4 13 7 N 1017,2 10 0,0
12.12.2017 17:00:00 6,0 2,1 6 3 19 11 N 1016,4 60 0,0
12.12.2017 16:00:00 7,4 3,3 13 7 26 14 NNE 1015,5 60 0,0
12.12.2017 15:00:00 8,2 4,0 12 7 20 11 N 1014,5 55 0,0
12.12.2017 14:00:00 7,9 4,7 11 6 18 10 NNE 1013,7 53 0,0
12.12.2017 13:00:00 8,0 5,3 11 6 18 10 N 1013,8 30 0,0
12.12.2017 12:00:00 7,8 4,9 11 6 18 10 N 1013,2 52 0,0
12.12.2017 11:00:00 5,9 4,1 11 6 22 12 N 1012,8 15 0,0
12.12.2017 10:00:00 5,3 3,9 7 4 12 6 WSW 1012,4 40 0,0
12.12.2017 09:00:00 3,9 2,7 9 5 13 7 ESE 1011,2 15 0,0
12.12.2017 08:00:00 2,9 1,9 0 0 9 5 N 1009,7 10 0,0
12.12.2017 07:00:00 2,4 0,6 5 3 11 6 NNW 1008,5 48 0,0
12.12.2017 06:00:00 4,6 2,0 4 2 17 9 SW 1007,3 40 0,0
12.12.2017 05:00:00 4,6 2,1 9 5 18 10 W 1006,2 59 0,0
12.12.2017 04:00:00 4,7 2,6 10 6 21 11 WSW 1005,4 48 0,0
12.12.2017 03:00:00 4,7 2,1 0 0 16 9 N 1004,7 60 0,0
12.12.2017 02:00:00 4,4 1,6 7 4 17 9 WSW 1003,8 52 0,0
12.12.2017 01:00:00 6,1 2,7 6 4 24 13 W 1002,3 60 0,0
12.12.2017 00:00:00 6,2 3,7 16 9 24 13 SW 1001,3 40 0,0
11.12.2017 23:00:00 7,3 4,3 13 7 23 12 WSW 999,9 51 0,0
11.12.2017 22:00:00 6,9 3,1 7 4 18 10 SSW 998,6 60 0,0

tt = Température de l'air
td = dewpoint
ff = Vitesse du vent
fx = gusts
dd = Direction du vent
ppp = reduced air pressure
vv = visibility
rr = Quantités de précipitations

stations d'obs. à proximité